This is the latest recevied weather packets stored in our database for station/object KN6CW-3. If no packets are shown the sender has not sent any weather packets the latest 10 day(s).
| Time | Temp. | Humidity | Pressure | Rain* | Wind** | Luminosity | Snow |
|---|---|---|---|---|---|---|---|
| 1777644516 | 8.33° C | 71% | 1014 hPa | 0 mm | - | 772 W/m² | - |
| 1777644215 | 8.33° C | 76% | 1014.1 hPa | 0 mm | - | 782 W/m² | - |
| 1777643915 | 7.78° C | 76% | 1014.1 hPa | 0 mm | - | 772 W/m² | - |
| 1777643615 | 7.78° C | 76% | 1014 hPa | 0 mm | - | 786 W/m² | - |
| 1777643314 | 7.22° C | 76% | 1014.1 hPa | 0 mm | - | 777 W/m² | - |
| 1777643014 | 7.22° C | 79% | 1014.2 hPa | 0 mm | - | 752 W/m² | - |
| 1777642714 | 6.67° C | 84% | 1014.1 hPa | 0 mm | - | 740 W/m² | - |
| 1777642414 | 6.11° C | 84% | 1014.2 hPa | 0 mm | - | 701 W/m² | - |
| 1777642113 | 6.11° C | 83% | 1014.2 hPa | 0 mm | - | 197 W/m² | - |
| 1777641813 | 6.11° C | 84% | 1014.3 hPa | 0 mm | - | 120 W/m² | - |
| 1777641513 | 6.11° C | 83% | 1014.3 hPa | 0 mm | - | 199 W/m² | - |
| 1777641212 | 6.67° C | 84% | 1014.2 hPa | 0 mm | - | 244 W/m² | - |
| 1777640913 | 6.11° C | 86% | 1014.3 hPa | 0 mm | - | 619 W/m² | - |
| 1777640612 | 6.11° C | 85% | 1014.4 hPa | 0 mm | - | 496 W/m² | - |
| 1777640312 | 6.11° C | 87% | 1014.5 hPa | 0 mm | - | 555 W/m² | - |
| 1777640011 | 5.56° C | 88% | 1014.6 hPa | 0 mm | - | 517 W/m² | - |
| 1777639711 | 5.56° C | 90% | 1014.6 hPa | 0 mm | - | 520 W/m² | - |
| 1777639411 | 5.56° C | 90% | 1014.5 hPa | 0 mm | - | 497 W/m² | - |
| 1777639110 | 5.56° C | 91% | 1014.2 hPa | 0 mm | - | 517 W/m² | - |
| 1777638810 | 5° C | 93% | 1014.2 hPa | 0 mm | - | 487 W/m² | - |
| 1777638510 | 5° C | 92% | 1014.4 hPa | 0 mm | - | 466 W/m² | - |
| 1777638210 | 5° C | 94% | 1014.4 hPa | 0 mm | - | 413 W/m² | - |
| 1777637909 | 4.44° C | 94% | 1014.5 hPa | 0 mm | - | 388 W/m² | - |
| 1777637609 | 4.44° C | 95% | 1014.5 hPa | 0 mm | - | 371 W/m² | - |
| 1777637309 | 4.44° C | 95% | 1014.4 hPa | 0 mm | - | 355 W/m² | - |
* Rain latest hour (hover to see other rain measurements)
** Current wind speed in m/s (hover to see current wind gust speed)